N0OQA Weather Reports


Display with metric or nautical units.
time (UTC)temp
F
wind
direction
speed
MPH
gust
MPH
rain 1hr
in
rain 24hr
in
rain mn
in
humidity
%
barometer
mb
20260508130036 41 0 0.0 0.0 0.00 0.00 0.00 87 1010.0
20260508125036 40 0 0.0 0.0 0.00 0.00 0.00 94 1010.1
20260508124536 40 0 0.0 0.0 0.00 0.00 0.00 94 1010.0
20260508123535 38 0 0.0 0.0 0.00 0.00 0.00 95 1009.9
20260508123035 38 0 0.0 0.0 0.00 0.00 0.00 95 1009.9
20260508122034 37 0 0.0 0.0 0.00 0.00 0.00 95 1009.9
20260508121534 37 0 0.0 0.0 0.00 0.00 0.00 95 1009.9
20260508120533 35 0 0.0 0.0 0.00 0.00 0.00 93 1009.8
20260508120033 35 0 0.0 0.0 0.00 0.00 0.00 93 1009.8
20260508115533 35 0 0.0 0.0 0.00 0.00 0.00 93 1009.8
20260508115032 34 0 0.0 0.0 0.00 0.00 0.00 93 1009.8
20260508114032 34 0 0.0 0.0 0.00 0.00 0.00 92 1009.8
20260508113532 34 0 0.0 0.0 0.00 0.00 0.00 91 1009.8
20260508113031 34 0 0.0 0.0 0.00 0.00 0.00 91 1009.8
20260508112531 34 0 0.0 0.0 0.00 0.00 0.00 91 1009.7
20260508111030 34 0 0.0 0.0 0.00 0.00 0.00 91 1009.8
20260508110530 34 0 0.0 0.0 0.00 0.00 0.00 91 1009.8
20260508105529 35 0 0.0 0.0 0.00 0.00 0.00 91 1009.8
20260508105029 35 0 0.0 0.0 0.00 0.00 0.00 90 1009.8
20260508104529 35 0 0.0 0.0 0.00 0.00 0.00 90 1009.9
20260508104028 35 0 0.0 0.0 0.00 0.00 0.00 89 1009.9
20260508103528 35 0 0.0 0.0 0.00 0.00 0.00 89 1009.9
20260508103028 35 0 0.0 0.0 0.00 0.00 0.00 89 1009.9
20260508102528 35 0 0.0 0.0 0.00 0.00 0.00 89 1009.9
20260508102027 35 0 0.0 0.0 0.00 0.00 0.00 89 1009.9
20260508101027 36 0 0.0 0.0 0.00 0.00 0.00 90 1010.0
20260508100526 36 0 0.0 0.0 0.00 0.00 0.00 90 1010.0
20260508095526 37 0 0.0 0.0 0.00 0.00 0.00 89 1010.0
20260508094525 37 0 0.0 0.0 0.00 0.00 0.00 86 1010.0
20260508094025 37 0 0.0 0.0 0.00 0.00 0.00 86 1010.0
20260508092524 38 0 0.0 0.0 0.00 0.00 0.00 83 1009.9
20260508091023 38 0 0.0 0.0 0.00 0.00 0.00 76 1009.9
20260508085522 39 0 0.0 0.0 0.00 0.00 0.00 74 1009.9
20260508084522 39 0 0.0 0.0 0.00 0.00 0.00 73 1009.9
20260508084021 40 0 0.0 0.0 0.00 0.00 0.00 73 1009.9
20260508083021 40 0 0.0 0.0 0.00 0.00 0.00 69 1010.0
20260508082521 40 0 0.0 0.0 0.00 0.00 0.00 69 1010.0
20260508081520 40 0 0.0 0.0 0.00 0.00 0.00 69 1009.9
20260508081020 41 0 0.0 0.0 0.00 0.00 0.00 69 1010.0
20260508075519 41 0 0.0 0.0 0.00 0.00 0.00 68 1010.0
20260508075019 41 0 0.0 0.0 0.00 0.00 0.00 69 1010.0
20260508074518 40 0 0.0 0.0 0.00 0.00 0.00 69 1010.0
20260508074018 40 0 0.0 0.0 0.00 0.00 0.00 70 1010.0
20260508073518 40 0 0.0 0.0 0.00 0.00 0.00 70 1010.0
20260508073017 40 0 0.0 0.0 0.00 0.00 0.00 71 1010.1
20260508072517 39 0 0.0 0.0 0.00 0.00 0.00 72 1010.1
20260508072015 39 0 0.0 0.0 0.00 0.00 0.00 73 1010.1
20260508071515 39 0 0.0 0.0 0.00 0.00 0.00 73 1010.1
20260508071015 39 0 0.0 0.0 0.00 0.00 0.00 71 1010.2
20260508070515 39 0 0.0 0.0 0.00 0.00 0.00 71 1010.2
20260508070014 40 0 0.0 0.0 0.00 0.00 0.00 72 1010.2
20260508065514 40 0 0.0 0.0 0.00 0.00 0.00 71 1010.2
20260508065014 40 0 0.0 0.0 0.00 0.00 0.00 71 1010.2
20260508064513 40 0 0.0 0.0 0.00 0.00 0.00 70 1010.2
20260508063513 40 0 0.0 0.0 0.00 0.00 0.00 68 1010.3
20260508063013 40 0 0.0 0.0 0.00 0.00 0.00 68 1010.4
20260508062012 40 0 0.0 0.0 0.00 0.00 0.00 68 1010.5
20260508061512 40 0 0.0 0.0 0.00 0.00 0.00 67 1010.5
20260508061012 40 0 0.0 0.0 0.00 0.00 0.00 67 1010.5
20260508060511 41 0 0.0 0.0 0.00 0.00 0.00 67 1010.6
20260508055511 41 0 0.0 0.0 0.00 0.00 0.00 66 1010.6
20260508055010 41 0 0.0 0.0 0.00 0.00 0.00 65 1010.8
20260508054510 41 0 0.0 0.0 0.00 0.00 0.00 65 1010.8
20260508054010 41 0 0.0 0.0 0.00 0.00 0.00 66 1010.8
20260508053510 41 0 0.0 0.0 0.00 0.00 0.00 66 1010.9
20260508053009 41 0 0.0 0.0 0.00 0.00 0.00 67 1011.0
20260508052509 41 0 0.0 0.0 0.00 0.00 0.00 66 1011.0
20260508051508 41 0 0.0 0.0 0.00 0.00 0.00 66 1010.9
20260508051008 41 0 0.0 0.0 0.00 0.00 0.00 66 1010.9
20260508045507 41 0 0.0 0.0 0.00 0.00 0.00 64 1011.0
20260508044507 42 0 0.0 0.0 0.00 0.00 0.00 62 1011.0
20260508044006 42 0 0.0 0.0 0.00 0.00 0.00 62 1011.1
20260508043506 42 0 0.0 0.0 0.00 0.00 0.00 62 1011.1
20260508043006 42 0 0.0 0.0 0.00 0.00 0.00 63 1011.1
20260508042005 43 0 0.0 0.0 0.00 0.00 0.00 59 1011.2
20260508041505 43 0 0.0 0.0 0.00 0.00 0.00 58 1011.2
20260508041005 43 0 0.0 0.0 0.00 0.00 0.00 56 1011.2
20260508040504 43 0 0.0 0.0 0.00 0.00 0.00 56 1011.2
20260508035504 44 0 0.0 0.0 0.00 0.00 0.00 55 1011.3
20260508034503 44 0 0.0 0.0 0.00 0.00 0.00 55 1011.4
20260508034003 44 0 0.0 0.0 0.00 0.00 0.00 53 1011.4
20260508033503 45 0 0.0 0.0 0.00 0.00 0.00 52 1011.4
20260508032502 45 0 0.0 0.0 0.00 0.00 0.00 50 1011.5
20260508032002 45 0 0.0 0.0 0.00 0.00 0.00 50 1011.5
20260508031502 46 0 0.0 0.0 0.00 0.00 0.00 50 1011.5
20260508031001 46 0 0.0 0.0 0.00 0.00 0.00 49 1011.5
20260508030501 46 0 0.0 0.0 0.00 0.00 0.00 48 1011.5
20260508025000 48 0 0.0 0.0 0.00 0.00 0.00 46 1011.4
20260508024500 48 0 0.0 0.0 0.00 0.00 0.00 46 1011.4
20260508023959 48 0 0.0 0.0 0.00 0.00 0.00 44 1011.4
20260508023459 49 0 0.0 0.0 0.00 0.00 0.00 44 1011.3
20260507131913 37 0 0.0 0.0 0.00 0.00 0.00 83 1015.2
20260507131413 37 0 0.0 0.0 0.00 0.00 0.00 86 1015.2